Location: Friaudour
(46.0460°N, 1.2873°E)
Time: 20:32:40
(UTC+00:00)

Cosmos 1743 - Pass Details

Date: 14 July 2020
Orbit: 511 x 526 km, 82.6° (Epoch: 14 August)

Event Time Altitude Azimuth Distance (km) Brightness Sun altitude
Exits shadow 03:02:19 12° 191° (SSW) 1,613 4.7 -10.8°
Maximum altitude 03:05:50 80° 278° (W) 529 2.6 -10.4°
Drops below altitude 10° 03:09:41 10° 7° (N) 1,757 6.3 -10.0°
Sets 03:11:51 0° 8° (N) 2,652 7.3 -9.7°
